FW4751 Weather Reports


time (UTC)temp
C
wind
direction
speed
KPH
gust
KPH
rain 1hr
cm
rain 24hr
cm
rain mn
cm
humidity
%
barometer
mb
20260504050505 12 293 1.6 6.4 0.00 0.00 0.00 77 1015.1
20260504050004 12 315 1.6 3.2 0.00 0.00 0.00 77 1015.1
20260504045524 12 315 1.6 3.2 0.00 0.00 0.00 76 1014.8
20260504045004 12 315 1.6 3.2 0.00 0.00 0.00 76 1014.7
20260504044505 12 315 1.6 3.2 0.00 0.00 0.00 76 1014.7
20260504044004 12 225 1.6 6.4 0.00 0.00 0.00 76 1014.7
20260504043504 12 225 1.6 6.4 0.00 0.00 0.00 75 1014.7
20260504043004 12 270 1.6 3.2 0.00 0.00 0.00 75 1014.6
20260504042504 12 270 1.6 3.2 0.00 0.00 0.00 75 1014.5
20260504042004 12 225 3.2 8.0 0.00 0.00 0.00 74 1014.5
20260504041504 12 225 3.2 8.0 0.00 0.00 0.00 74 1014.5
20260504041005 12 225 3.2 9.7 0.00 0.00 0.00 74 1014.5
20260504040524 12 203 1.6 8.0 0.00 0.00 0.00 74 1014.3
20260504040024 13 225 3.2 6.4 0.00 0.00 0.00 74 1014.3
20260504035504 13 225 3.2 9.7 0.00 0.00 0.00 74 1014.2
20260504035004 13 225 3.2 9.7 0.00 0.00 0.00 74 1014.1
20260504034505 13 225 3.2 9.7 0.00 0.00 0.00 74 1014.1
20260504034025 13 225 3.2 11.3 0.00 0.00 0.00 73 1014.0
20260504033524 13 225 3.2 14.5 0.00 0.00 0.00 72 1014.0
20260504033004 13 225 4.8 11.3 0.00 0.00 0.00 72 1013.9
20260504032505 13 270 4.8 9.7 0.00 0.00 0.00 71 1013.8
20260504032004 13 248 3.2 12.9 0.00 0.00 0.00 70 1013.8
20260504031504 13 270 3.2 16.1 0.00 0.00 0.00 69 1013.7
20260504031004 13 248 3.2 8.0 0.00 0.00 0.00 68 1013.7
20260504030504 14 315 1.6 8.0 0.00 0.00 0.00 68 1013.7
20260504030004 14 270 4.8 14.5 0.00 0.00 0.00 68 1013.6
20260504025504 14 315 3.2 8.0 0.00 0.00 0.00 68 1013.5
20260504025005 15 293 3.2 8.0 0.00 0.00 0.00 68 1013.5
20260504024504 15 315 3.2 12.9 0.00 0.00 0.00 67 1013.4
20260504024004 15 248 3.2 8.0 0.00 0.00 0.00 67 1013.2
20260504023504 15 225 3.2 9.7 0.00 0.00 0.00 67 1013.0
20260504023004 15 315 3.2 9.7 0.00 0.00 0.00 68 1013.0
20260504022504 15 225 4.8 12.9 0.00 0.00 0.00 67 1013.0
20260504022024 15 270 3.2 8.0 0.00 0.00 0.00 67 1013.0
20260504021504 15 225 3.2 14.5 0.00 0.00 0.00 67 1013.0
20260504021004 15 248 4.8 14.5 0.00 0.00 0.00 66 1012.8
20260504020504 15 225 4.8 14.5 0.00 0.00 0.00 65 1012.8
20260504020004 16 225 3.2 12.9 0.00 0.00 0.00 65 1012.9
20260504015524 16 270 6.4 14.5 0.00 0.00 0.00 65 1013.0
20260504015004 16 225 6.4 17.7 0.00 0.00 0.00 64 1013.1
20260504014504 16 293 4.8 16.1 0.00 0.00 0.00 63 1013.0
20260504014004 16 225 4.8 14.5 0.00 0.00 0.00 63 1012.9
20260504013524 16 248 4.8 14.5 0.00 0.00 0.00 61 1012.9
20260504013004 17 225 4.8 12.9 0.00 0.00 0.00 61 1012.9
20260504012524 17 293 4.8 12.9 0.00 0.00 0.00 60 1012.9
20260504012004 17 225 4.8 16.1 0.00 0.00 0.00 60 1013.0
20260504011504 17 225 6.4 16.1 0.00 0.00 0.00 58 1012.9
20260504011004 18 225 4.8 12.9 0.00 0.00 0.00 57 1013.0
20260504010504 18 225 6.4 12.9 0.00 0.00 0.00 56 1012.9
20260504010004 18 225 4.8 12.9 0.00 0.00 0.00 56 1012.8
20260504005504 18 315 6.4 12.9 0.00 0.00 0.00 56 1013.0
20260504005004 18 225 3.2 9.7 0.00 0.00 0.00 57 1012.9
20260504004504 18 225 4.8 12.9 0.00 0.00 0.00 57 1012.9
20260504004004 18 248 4.8 12.9 0.00 0.00 0.00 56 1012.8
20260504003524 17 225 6.4 12.9 0.00 0.00 0.00 56 1013.0
20260504003004 17 270 4.8 12.9 0.00 0.00 0.00 56 1012.9
20260504002504 18 225 4.8 12.9 0.00 0.00 0.00 58 1012.9
20260504002024 18 270 4.8 12.9 0.00 0.00 0.00 58 1012.7
20260504001504 18 248 4.8 12.9 0.00 0.00 0.00 57 1012.8
20260504001004 18 248 4.8 11.3 0.00 0.00 0.00 55 1012.7
20260504000503 18 248 4.8 14.5 0.00 0.00 0.00 55 1012.7
20260504000003 19 248 4.8 14.5 0.00 0.00 0.00 55 1012.6
20260503235504 19 248 6.4 14.5 0.00 0.00 0.00 54 1012.6
20260503235004 20 315 4.8 9.7 0.00 0.00 0.00 54 1012.6
20260503234504 19 315 4.8 14.5 0.00 0.00 0.00 55 1012.7
20260503234024 19 315 4.8 14.5 0.00 0.00 0.00 54 1012.6
20260503233503 19 225 4.8 14.5 0.00 0.00 0.00 54 1012.7
20260503233003 19 225 4.8 12.9 0.00 0.00 0.00 55 1012.7
20260503232503 18 225 4.8 16.1 0.00 0.00 0.00 55 1012.8
20260503232003 18 225 4.8 16.1 0.00 0.00 0.00 56 1012.9
20260503231504 18 225 3.2 14.5 0.00 0.00 0.00 59 1012.9
20260503231044 18 225 6.4 14.5 0.00 0.00 0.00 59 1013.0
20260503230504 17 225 3.2 9.7 0.00 0.00 0.00 60 1012.9
20260503230024 17 225 6.4 16.1 0.00 0.00 0.00 60 1013.0
20260503225503 17 225 4.8 11.3 0.00 0.00 0.00 61 1013.0
20260503225003 17 225 4.8 11.3 0.00 0.00 0.00 61 1013.0
20260503224524 17 225 6.4 14.5 0.00 0.00 0.00 61 1013.1
20260503224003 17 248 4.8 14.5 0.00 0.00 0.00 61 1013.1
20260503223504 17 270 4.8 17.7 0.00 0.00 0.00 63 1013.1
20260503223003 17 225 4.8 14.5 0.00 0.00 0.00 64 1013.1
20260503222504 17 225 4.8 14.5 0.00 0.00 0.00 64 1013.1
20260503222024 17 293 4.8 11.3 0.00 0.00 0.00 63 1013.1
20260503221504 17 225 4.8 14.5 0.00 0.00 0.00 63 1013.1
20260503221003 17 225 4.8 12.9 0.00 0.00 0.00 62 1013.0
20260503220504 17 225 4.8 16.1 0.00 0.00 0.00 62 1013.1
20260503220003 18 225 4.8 11.3 0.00 0.00 0.00 62 1013.0
20260503215504 17 225 4.8 11.3 0.00 0.00 0.00 63 1013.0
20260503215003 17 315 4.8 12.9 0.00 0.00 0.00 63 1012.9
20260503214504 17 270 3.2 11.3 0.00 0.00 0.00 63 1013.0
20260503214003 17 248 4.8 17.7 0.00 0.00 0.00 62 1013.2
20260503213524 18 293 3.2 17.7 0.00 0.00 0.00 61 1013.1
20260503213003 18 225 3.2 11.3 0.00 0.00 0.00 61 1013.1
20260503212504 18 225 3.2 9.7 0.00 0.00 0.00 60 1013.0
20260503212023 18 293 3.2 8.0 0.00 0.00 0.00 61 1013.0
20260503211504 18 225 3.2 8.0 0.00 0.00 0.00 61 1013.1
20260503211003 18 225 3.2 9.7 0.00 0.00 0.00 60 1013.1
20260503210503 18 315 1.6 8.0 0.00 0.00 0.00 62 1013.1
20260503210005 17 338 3.2 8.0 0.00 0.00 0.00 63 1013.1
20260503205503 17 338 3.2 9.7 0.00 0.00 0.00 62 1013.1
20260503205004 17 293 3.2 11.3 0.00 0.00 0.00 62 1013.0
20260503204523 17 225 3.2 11.3 0.00 0.00 0.00 61 1013.0
20260503204023 17 315 3.2 8.0 0.00 0.00 0.00 63 1013.2
20260503203503 17 248 3.2 9.7 0.00 0.00 0.00 63 1013.2
20260503203004 17 225 3.2 8.0 0.00 0.00 0.00 64 1013.3
20260503202503 17 315 3.2 9.7 0.00 0.00 0.00 62 1013.3
20260503202004 17 293 3.2 9.7 0.00 0.00 0.00 61 1013.3
20260503201503 18 315 3.2 8.0 0.00 0.00 0.00 61 1013.3
20260503201003 18 315 3.2 11.3 0.00 0.00 0.00 61 1013.3
20260503200503 18 315 3.2 8.0 0.00 0.00 0.00 61 1013.3
20260503200003 17 293 3.2 9.7 0.00 0.00 0.00 60 1013.4
20260503195503 17 293 3.2 9.7 0.00 0.00 0.00 59 1013.4
20260503195003 17 293 4.8 12.9 0.00 0.00 0.00 61 1013.4
20260503194503 17 225 3.2 11.3 0.00 0.00 0.00 62 1013.5
20260503194003 17 315 3.2 12.9 0.00 0.00 0.00 62 1013.4
20260503193503 17 225 4.8 8.0 0.00 0.00 0.00 61 1013.6
20260503193003 17 225 1.6 6.4 0.00 0.00 0.00 60 1013.5
20260503192504 18 225 3.2 12.9 0.00 0.00 0.00 59 1013.6
20260503192003 18 225 3.2 14.5 0.00 0.00 0.00 58 1013.6
20260503191503 18 293 3.2 6.4 0.00 0.00 0.00 58 1013.5
20260503191003 18 225 3.2 8.0 0.00 0.00 0.00 57 1013.5
20260503190504 18 0 1.6 4.8 0.00 0.00 0.00 56 1013.6
20260503190003 18 113 1.6 8.0 0.00 0.00 0.00 57 1013.6
20260503185503 17 293 1.6 6.4 0.00 0.00 0.00 59 1013.5
20260503185004 17 248 3.2 8.0 0.00 0.00 0.00 61 1013.6
20260503184503 17 315 3.2 8.0 0.00 0.00 0.00 61 1013.6
20260503184003 17 248 3.2 8.0 0.00 0.00 0.00 62 1013.6
20260503183503 17 225 3.2 11.3 0.00 0.00 0.00 60 1013.7
20260503183003 17 225 3.2 6.4 0.00 0.00 0.00 60 1013.7
20260503182503 17 315 3.2 6.4 0.00 0.00 0.00 61 1013.7
20260503182003 17 225 3.2 9.7 0.00 0.00 0.00 61 1013.7
20260503181504 17 225 3.2 14.5 0.00 0.00 0.00 60 1013.7
20260503181004 17 225 3.2 11.3 0.00 0.00 0.00 60 1013.7
20260503180503 17 225 3.2 9.7 0.00 0.00 0.00 63 1013.6
20260503180003 17 270 3.2 8.0 0.00 0.00 0.00 63 1013.6
20260503175503 17 225 4.8 11.3 0.00 0.00 0.00 63 1013.7
20260503175005 16 225 4.8 11.3 0.00 0.00 0.00 64 1013.6
20260503174505 16 225 3.2 9.7 0.00 0.00 0.00 66 1013.6
20260503174005 16 225 4.8 11.3 0.00 0.00 0.00 66 1013.7
20260503173505 16 225 3.2 11.3 0.00 0.00 0.00 67 1013.7
20260503173005 15 225 4.8 9.7 0.00 0.00 0.00 70 1013.7
20260503172505 15 225 3.2 6.4 0.00 0.00 0.00 70 1013.7
20260503172005 15 225 3.2 9.7 0.00 0.00 0.00 70 1013.7
20260503171525 15 225 3.2 11.3 0.00 0.00 0.00 72 1013.7
20260503171024 15 315 3.2 8.0 0.00 0.00 0.00 73 1013.7
20260503170505 15 315 3.2 9.7 0.00 0.00 0.00 74 1013.7
20260503151004 13 225 1.6 4.8 0.00 0.00 0.00 79 1013.4
20260503150505 13 225 1.6 8.0 0.00 0.00 0.00 79 1013.2
20260503131004 12 293 1.6 3.2 0.00 0.00 0.00 81 1011.9
20260503130504 12 225 1.6 3.2 0.00 0.00 0.00 80 1011.9
20260503110504 12 0.0 1.6 0.00 0.00 0.00 79 1011.8
20260503081504 13 270 1.6 4.8 0.00 0.00 0.00 77 1012.5
20260503081023 13 248 1.6 3.2 0.00 0.00 0.00 77 1012.6
20260503080523 13 270 1.6 4.8 0.00 0.00 0.00 77 1012.6
20260503072504 13 270 1.6 4.8 0.00 0.00 0.00 76 1012.9
20260503072004 13 338 3.2 6.4 0.00 0.00 0.00 76 1012.8
20260503071503 13 315 1.6 3.2 0.00 0.00 0.00 76 1012.8
20260503071003 13 338 1.6 6.4 0.00 0.00 0.00 76 1012.6
20260503070503 13 338 1.6 4.8 0.00 0.00 0.00 76 1012.7